User: anonymous   Login
Location: Parc des �les de St-Timoth�e
(45.2924°N, 74.0481°W)
Time: 04:09:32
(UTC-05:00)
Language:

Cosmos 2173 Rocket - Orbit

View from above orbital plane
View from above orbital plane
View from above satellite
View from above satellite

Ground track
Ground track

The orbit data is extracted from the following two-line orbital elements,

1 21797U 91081B   16035.61833881 +.00000119 +00000-0 +10329-3 0  9997
2 21797 082.9517 072.4339 0039044 046.9496 111.0929 13.77353381215491
Epoch (UTC): 04 February 2016 14:50:24
Eccentricity: 0.0039044
inclination: 82.9517°
perigee height: 944 km
apogee height: 1002 km
right ascension of ascending node: 72.4339°
argument of perigee: 46.9496°
revolutions per day: 13.77353381
mean anomaly at epoch: 111.0929°
orbit number at epoch: 21549

The dashed part of the orbit path shows where the satellite is in the earth's shadow,  

DLR